Grand Junction, CO

10:55 AM MST on December 07, 2016 (GMT -0700)
Walker

Weather History for KGJT - September, 2013

Change the Weather History Date:

Monday, September 30, 2013

  Actual Average Record
Temperature  
Mean Temperature 61 °F 60 °F  
Max Temperature 75 °F 74 °F 88 °F (1957)
Min Temperature 47 °F 46 °F 32 °F (1985)
Degree Days  
Heating Degree Days 4 6  
Month to date heating degree days 82 71  
Since 1 July heating degree days 82 74  
Cooling Degree Days 0 1  
Month to date cooling degree days 143 103  
Year to date cooling degree days 1269 1122  
Growing Degree Days 10 (Base 50)    
Moisture  
Dew Point 34 °F    
Average Humidity 40    
Maximum Humidity 61    
Minimum Humidity 18    
Precipitation  
Precipitation 0.00 in 0.04 in 0.83 in (1893)
Month to date precipitation 3.09 1.19  
Year to date precipitation 9.06 7.04  
Snow  
Snow 0.00 in 0.00 in 0.00 in (2015)
Month to date snowfall 0.0 0.0  
Since 1 July snowfall 0.0 0.0  
Since 1 September snowfall 0.0 0.0  
Snow Depth 0.00 in    
Sea Level Pressure  
Sea Level Pressure 29.89 in    
Wind  
Wind Speed 8 mph (ESE)    
Max Wind Speed 18 mph    
Max Gust Speed 23 mph    
Visibility 10 miles    
Events      
T = Trace of Precipitation, MM = Missing Value Source: NWS Daily Summary

Daily Weather History Graph

Daily Weather History Graph

Search for Another Location

Airport or City:

Trip Planner

Search our weather history database for the weather conditions in past years. The results will help you decide how hot, cold, wet, or windy it might be!

Date:

Astronomy

Sep. 30, 2013 Rise Set
Actual Time 7:09 AM MDT 6:57 PM MDT
Civil Twilight 6:42 AM MDT 7:24 PM MDT
Nautical Twilight 6:11 AM MDT 7:55 PM MDT
Astronomical Twilight 5:40 AM MDT 8:26 PM MDT
Moon 2:51 AM MDT (9/30) 4:28 PM MDT (9/30)
Length of Visible Light 12h 41m
Length of Day
11h 48m
Waning Crescent, 18% of the Moon is Illuminated
Sep 30
Waning Crescent
Oct 4
New
Oct 11
First Quarter
Oct 18
Full
Oct 26
Last Quarter

Hourly Weather History & Observations

Time (MDT) Temp. Dew Point Humidity Pressure Visibility Wind Dir Wind Speed Gust Speed Precip Events Conditions
12:53 AM 52.0 °F 36.0 °F 54% 29.96 in 10.0 mi ESE 8.1 mph - N/A   Clear
1:53 AM 53.1 °F 34.0 °F 48% 29.95 in 10.0 mi ESE 15.0 mph - N/A   Clear
2:53 AM 53.1 °F 34.0 °F 48% 29.94 in 10.0 mi East 15.0 mph - N/A   Clear
3:53 AM 51.1 °F 34.0 °F 52% 29.93 in 10.0 mi ESE 13.8 mph - N/A   Clear
4:53 AM 51.1 °F 34.0 °F 52% 29.92 in 10.0 mi ESE 16.1 mph - N/A   Clear
5:53 AM 48.9 °F 35.1 °F 59% 29.93 in 10.0 mi SE 12.7 mph - N/A   Clear
6:53 AM 48.9 °F 35.1 °F 59% 29.94 in 10.0 mi ESE 10.4 mph - N/A   Clear
7:53 AM 48.9 °F 35.1 °F 59% 29.97 in 10.0 mi ESE 11.5 mph - N/A   Clear
8:53 AM 54.0 °F 35.1 °F 49% 29.97 in 10.0 mi ESE 8.1 mph - N/A   Clear
9:53 AM 59.0 °F 32.0 °F 36% 29.97 in 10.0 mi SE 11.5 mph - N/A   Clear
10:53 AM 63.0 °F 32.0 °F 31% 29.96 in 10.0 mi South 6.9 mph - N/A   Clear
11:53 AM 66.0 °F 33.1 °F 29% 29.93 in 10.0 mi SSW 4.6 mph - N/A   Clear
12:53 PM 69.1 °F 32.0 °F 25% 29.89 in 10.0 mi Calm Calm - N/A   Clear
1:53 PM 72.0 °F 30.9 °F 22% 29.84 in 10.0 mi Variable 6.9 mph - N/A   Clear
2:53 PM 73.9 °F 28.9 °F 19% 29.81 in 10.0 mi NW 9.2 mph - N/A   Clear
3:53 PM 73.9 °F 30.0 °F 20% 29.81 in 10.0 mi NNW 5.8 mph - N/A   Clear
4:53 PM 75.0 °F 30.0 °F 19% 29.80 in 10.0 mi NNW 6.9 mph - N/A   Clear
5:53 PM 75.0 °F 28.9 °F 18% 29.80 in 10.0 mi Calm Calm - N/A   Clear
6:53 PM 68.0 °F 36.0 °F 31% 29.81 in 10.0 mi NE 3.5 mph - N/A   Clear
7:53 PM 60.1 °F 37.9 °F 44% 29.83 in 10.0 mi ENE 3.5 mph - N/A   Clear
8:53 PM 59.0 °F 36.0 °F 42% 29.84 in 10.0 mi East 4.6 mph - N/A   Clear
9:53 PM 57.0 °F 37.0 °F 47% 29.85 in 10.0 mi East 6.9 mph - N/A   Clear
10:53 PM 55.0 °F 37.9 °F 53% 29.85 in 10.0 mi ESE 3.5 mph - N/A   Clear
11:53 PM 55.9 °F 36.0 °F 47% 29.85 in 10.0 mi East 3.5 mph - N/A   Clear